Weather History for Perry, FL

Change the Weather History Date:

Tuesday, June 18, 2013

  Actual Average (KCTY) Record (KCTY)
Temperature  
Mean Temperature 79 °F 80 °F  
Max Temperature 91 °F 91 °F 100 °F (1998)
Min Temperature 68 °F 70 °F 61 °F (2006)
Degree Days  
Heating Degree Days 0 0  
Month to date heating degree days 0  
Since 1 June heating degree days 0  
Since 1 July heating degree days 1306  
Cooling Degree Days 14 15  
Month to date cooling degree days 261  
Year to date cooling degree days 740  
Since 1 June cooling degree days 261  
Growing Degree Days 29 (Base 50)    
Moisture  
Dew Point 70 °F    
Average Humidity 75    
Maximum Humidity 100    
Minimum Humidity 49    
Precipitation  
Precipitation 0.05 in 0.20 in 0.81 in (2001)
Month to date precipitation 2.78  
Year to date precipitation 19.95  
Sea Level Pressure  
Sea Level Pressure 30.01 in    
Wind  
Wind Speed 5 mph (SW)    
Max Wind Speed 18 mph    
Max Gust Speed 25 mph    
Visibility 9 miles    
Events Fog , Thunderstorm    
T = Trace of Precipitation, MM = Missing Value Source: NWS Daily Summary

Daily Weather History Graph

Daily Weather History Graph

Search for Another Location

Airport:

Trip Planner

Search our weather history database for the weather conditions in past years. The results will help you decide how hot, cold, wet, or windy it might be!

Date:

Astronomy

Jun. 18, 2013 Rise Set
Actual Time 6:33 AM EDT 8:38 PM EDT
Civil Twilight 6:05 AM EDT 9:05 PM EDT
Nautical Twilight 5:32 AM EDT 9:38 PM EDT
Astronomical Twilight 4:56 AM EDT 10:14 PM EDT
Moon 3:37 PM EDT (6/18) 2:22 AM EDT (6/18)
Length of Visible Light 14h 59m
Length of Day
14h 04m
Waxing Gibbous, 70% of the Moon is Illuminated
Jun 18
Waxing Gibbous
Jun 23
Full
Jun 30
Last Quarter
Jul 8
New
Jul 15
First Quarter

Hourly Weather History & Observations

Time (EDT) Temp. Heat Index Dew Point Humidity Pressure Visibility Wind Dir Wind Speed Gust Speed Precip Events Conditions
12:15 AM 69.8 °F - 68.0 °F 94% 30.04 in 7.0 mi SE 3.5 mph - N/A   Clear
12:35 AM 71.6 °F - 69.8 °F 94% 30.03 in 10.0 mi Calm Calm - N/A   Clear
12:53 AM 72.0 °F - 69.1 °F 91% 30.01 in - SE 3.5 mph - N/A   Unknown
12:55 AM 69.8 °F - 68.0 °F 94% 30.02 in 7.0 mi SSE 3.5 mph - N/A   Clear
1:15 AM 71.6 °F - 69.8 °F 94% 30.02 in 10.0 mi Calm Calm - N/A   Clear
1:35 AM 71.6 °F - 69.8 °F 94% 30.01 in 7.0 mi Calm Calm - N/A   Clear
1:53 AM 72.0 °F - 69.1 °F 91% 29.99 in - Calm Calm - N/A   Unknown
1:55 AM 69.8 °F - 69.8 °F 100% 30.00 in 10.0 mi Calm Calm - N/A   Clear
2:15 AM 69.8 °F - 69.8 °F 100% 30.00 in 5.0 mi Calm Calm - N/A   Clear
2:35 AM 71.6 °F - 69.8 °F 94% 30.00 in 10.0 mi Calm Calm - N/A   Clear
2:53 AM 73.0 °F - 70.0 °F 90% 29.99 in - Calm Calm - 0.02 in   Unknown
2:55 AM 71.6 °F - 69.8 °F 94% 30.01 in 10.0 mi Calm Calm - N/A   Scattered Clouds
3:15 AM 71.6 °F - 69.8 °F 94% 30.01 in 7.0 mi Calm Calm - N/A   Scattered Clouds
3:35 AM 71.6 °F - 69.8 °F 94% 30.00 in 7.0 mi Calm Calm - N/A   Clear
3:53 AM 72.0 °F - 70.0 °F 93% 29.99 in - Calm Calm - 0.02 in   Unknown
3:55 AM 69.8 °F - 69.8 °F 100% 30.00 in 3.0 mi Calm Calm - N/A   Clear
4:15 AM 69.8 °F - 68.0 °F 94% 30.00 in 1.0 mi Calm Calm - N/A   Mist
4:35 AM 69.8 °F - 68.0 °F 94% 30.00 in 0.5 mi SE 3.5 mph - N/A Fog Fog
4:53 AM 71.1 °F - 69.1 °F 93% 29.99 in - Calm Calm - N/A   Unknown
4:55 AM 69.8 °F - 68.0 °F 94% 30.01 in 10.0 mi Calm Calm - N/A   Scattered Clouds
5:15 AM 69.8 °F - 69.8 °F 100% 30.01 in 10.0 mi Calm Calm - N/A   Scattered Clouds
5:35 AM 69.8 °F - 68.0 °F 94% 30.00 in 1.5 mi Calm Calm - N/A   Mist
5:53 AM 71.1 °F - 68.0 °F 90% 29.99 in - Calm Calm - N/A   Unknown
5:55 AM 69.8 °F - 68.0 °F 94% 30.00 in 1.8 mi Calm Calm - N/A   Mist
6:15 AM 68.0 °F - 66.2 °F 94% 30.01 in 4.0 mi Calm Calm - N/A   Clear
6:35 AM 69.8 °F - 68.0 °F 94% 30.01 in 5.0 mi Calm Calm - N/A   Clear
6:53 AM 70.0 °F - 68.0 °F 93% 30.00 in - Calm Calm - N/A   Unknown
6:55 AM 69.8 °F - 68.0 °F 94% 30.02 in 5.0 mi Calm Calm - N/A   Clear
7:15 AM 69.8 °F - 68.0 °F 94% 30.02 in 2.0 mi Calm Calm - N/A   Mostly Cloudy
7:35 AM 69.8 °F - 69.8 °F 100% 30.02 in 7.0 mi Calm Calm - N/A   Scattered Clouds
7:53 AM 75.0 °F - 71.1 °F 87% 30.01 in - Calm Calm - N/A   Unknown
7:55 AM 71.6 °F - 71.6 °F 100% 30.03 in 10.0 mi Calm Calm - N/A   Clear
8:15 AM 73.4 °F - 73.4 °F 100% 30.03 in 10.0 mi Calm Calm - N/A   Clear
8:35 AM 77.0 °F - 73.4 °F 89% 30.04 in 10.0 mi SW 4.6 mph - N/A   Clear
8:53 AM 82.0 °F 87.4 °F 73.0 °F 74% 30.03 in - WSW 4.6 mph - N/A   Unknown
8:55 AM 78.8 °F - 73.4 °F 83% 30.05 in 10.0 mi Calm Calm - N/A   Clear
9:15 AM 80.6 °F 84.6 °F 71.6 °F 74% 30.05 in 10.0 mi SW 9.2 mph - N/A   Scattered Clouds
9:35 AM 82.4 °F 87.2 °F 71.6 °F 70% 30.05 in 10.0 mi WSW 9.2 mph - N/A   Scattered Clouds
9:53 AM 86.0 °F 92.2 °F 72.0 °F 63% 30.04 in - SW 11.5 mph - N/A   Unknown
9:55 AM 84.2 °F 89.6 °F 71.6 °F 66% 30.05 in 10.0 mi WSW 10.4 mph - N/A   Mostly Cloudy
10:15 AM 82.4 °F 87.2 °F 71.6 °F 70% 30.05 in 10.0 mi SW 11.5 mph - N/A   Mostly Cloudy
10:35 AM 86.0 °F 90.4 °F 69.8 °F 58% 30.05 in 10.0 mi WSW 15.0 mph 18.4 mph N/A   Scattered Clouds
10:53 AM 87.1 °F 92.8 °F 71.1 °F 59% 30.04 in - SSW 13.8 mph 20.7 mph N/A   Unknown
10:55 AM 86.0 °F 90.4 °F 69.8 °F 58% 30.05 in 10.0 mi SW 12.7 mph - N/A   Scattered Clouds
11:15 AM 86.0 °F 90.4 °F 69.8 °F 58% 30.05 in 10.0 mi SW 11.5 mph 18.4 mph N/A   Scattered Clouds
11:35 AM 86.0 °F 90.4 °F 69.8 °F 58% 30.05 in 10.0 mi WSW 11.5 mph - N/A   Scattered Clouds
11:53 AM 88.0 °F 92.9 °F 70.0 °F 55% 30.03 in - SW 12.7 mph - N/A   Unknown
11:55 AM 86.0 °F 89.4 °F 68.0 °F 55% 30.05 in 10.0 mi WSW 9.2 mph - N/A   Scattered Clouds
12:15 PM 87.8 °F 91.4 °F 68.0 °F 52% 30.05 in 10.0 mi SW 12.7 mph - N/A   Scattered Clouds
12:35 PM 87.8 °F 91.4 °F 68.0 °F 52% 30.04 in 10.0 mi SSW 13.8 mph 19.6 mph N/A   Scattered Clouds
12:53 PM 89.1 °F 94.1 °F 70.0 °F 53% 30.02 in - SSW 13.8 mph - N/A   Unknown
12:55 PM 86.0 °F 89.4 °F 68.0 °F 55% 30.04 in 10.0 mi SW 12.7 mph 18.4 mph N/A   Scattered Clouds
1:15 PM 87.8 °F 91.4 °F 68.0 °F 52% 30.04 in 10.0 mi SW 17.3 mph - N/A   Scattered Clouds
1:35 PM 87.8 °F 91.4 °F 68.0 °F 52% 30.03 in 10.0 mi SW 12.7 mph 21.9 mph N/A   Scattered Clouds
1:53 PM 90.0 °F 94.5 °F 69.1 °F 50% 30.01 in - SSW 12.7 mph 21.9 mph N/A   Unknown
1:55 PM 87.8 °F 91.4 °F 68.0 °F 52% 30.02 in 10.0 mi WSW 10.4 mph 21.9 mph N/A   Scattered Clouds
2:15 PM 87.8 °F 90.4 °F 66.2 °F 49% 30.02 in 10.0 mi WSW 15.0 mph 21.9 mph N/A   Clear
2:35 PM 87.8 °F 90.4 °F 66.2 °F 49% 30.01 in 10.0 mi SSW 13.8 mph 23.0 mph N/A   Clear
2:53 PM 89.1 °F 93.7 °F 69.1 °F 52% 29.98 in - SW 17.3 mph 25.3 mph N/A   Unknown
2:55 PM 87.8 °F 91.4 °F 68.0 °F 52% 30.00 in 10.0 mi SW 13.8 mph 21.9 mph N/A   Clear
3:15 PM 87.8 °F 90.4 °F 66.2 °F 49% 30.00 in 10.0 mi WSW 18.4 mph 24.2 mph N/A   Clear
3:35 PM 87.8 °F 91.4 °F 68.0 °F 52% 30.00 in 10.0 mi WSW 18.4 mph - N/A Thunderstorm Clear
3:53 PM 90.0 °F 95.4 °F 70.0 °F 52% 29.98 in - SW 15.0 mph 25.3 mph N/A   Unknown
3:55 PM 87.8 °F 91.4 °F 68.0 °F 52% 30.00 in 10.0 mi SW 16.1 mph 20.7 mph N/A   Clear
4:15 PM 87.8 °F 91.4 °F 68.0 °F 52% 30.00 in 10.0 mi SW 16.1 mph 21.9 mph N/A   Scattered Clouds
4:35 PM 87.8 °F 92.6 °F 69.8 °F 55% 29.99 in 10.0 mi SW 15.0 mph 21.9 mph N/A   Scattered Clouds
4:53 PM 89.1 °F 95.0 °F 71.1 °F 55% 29.97 in - SW 17.3 mph - N/A   Unknown
4:55 PM 87.8 °F 92.6 °F 69.8 °F 55% 29.98 in 10.0 mi SW 15.0 mph 19.6 mph N/A   Scattered Clouds
5:15 PM 86.0 °F 90.4 °F 69.8 °F 58% 29.98 in 10.0 mi WSW 15.0 mph 21.9 mph N/A   Scattered Clouds
5:35 PM 86.0 °F 90.4 °F 69.8 °F 58% 29.98 in 10.0 mi SW 16.1 mph - N/A   Scattered Clouds
5:53 PM 88.0 °F 93.8 °F 71.1 °F 57% 29.96 in - SW 13.8 mph 21.9 mph N/A   Unknown
5:55 PM 86.0 °F 90.4 °F 69.8 °F 58% 29.97 in 10.0 mi SW 15.0 mph - N/A   Scattered Clouds
6:15 PM 86.0 °F 90.4 °F 69.8 °F 58% 29.97 in 10.0 mi SW 13.8 mph 18.4 mph N/A   Scattered Clouds
6:35 PM 84.2 °F 88.4 °F 69.8 °F 62% 29.96 in 10.0 mi WSW 16.1 mph - N/A   Scattered Clouds
6:53 PM 84.9 °F 90.7 °F 72.0 °F 65% 29.94 in - SW 12.7 mph - N/A   Unknown
6:55 PM 82.4 °F 87.2 °F 71.6 °F 70% 29.95 in 10.0 mi SW 10.4 mph - N/A   Scattered Clouds
7:15 PM 82.4 °F 87.2 °F 71.6 °F 70% 29.96 in 10.0 mi SW 11.5 mph - N/A   Scattered Clouds
7:35 PM 82.4 °F 86.3 °F 69.8 °F 66% 29.96 in 10.0 mi SW 12.7 mph - N/A   Clear
7:53 PM 84.0 °F 89.0 °F 71.1 °F 65% 29.95 in - SSW 13.8 mph - N/A   Unknown
7:55 PM 82.4 °F 87.2 °F 71.6 °F 70% 29.97 in 10.0 mi SSW 12.7 mph 17.3 mph N/A   Clear
8:15 PM 80.6 °F 84.6 °F 71.6 °F 74% 29.97 in 10.0 mi SW 9.2 mph - N/A   Clear
8:35 PM 80.6 °F 84.6 °F 71.6 °F 74% 29.97 in 10.0 mi SW 8.1 mph - N/A   Clear
8:53 PM 81.0 °F 85.2 °F 72.0 °F 74% 29.96 in - SW 6.9 mph - N/A   Unknown
8:55 PM 78.8 °F - 71.6 °F 78% 29.98 in 10.0 mi SW 5.8 mph - N/A   Clear
9:15 PM 78.8 °F - 71.6 °F 78% 29.98 in 10.0 mi SW 5.8 mph - N/A   Clear
9:35 PM 78.8 °F - 71.6 °F 78% 29.98 in 10.0 mi SW 5.8 mph - N/A   Clear
9:53 PM 80.1 °F 83.8 °F 72.0 °F 76% 29.98 in - SSW 5.8 mph - N/A   Unknown
9:55 PM 78.8 °F - 71.6 °F 78% 29.99 in 10.0 mi SW 3.5 mph - N/A   Clear
10:15 PM 77.0 °F - 71.6 °F 83% 30.00 in 10.0 mi SSW 3.5 mph - N/A   Clear
10:35 PM 77.0 °F - 71.6 °F 83% 30.00 in 10.0 mi SW 4.6 mph - N/A   Clear
10:53 PM 78.1 °F - 72.0 °F 81% 29.99 in - SSW 4.6 mph - N/A   Unknown
10:55 PM 77.0 °F - 71.6 °F 83% 30.00 in 10.0 mi SW 3.5 mph - N/A   Clear
11:15 PM 77.0 °F - 71.6 °F 83% 30.01 in 10.0 mi SW 3.5 mph - N/A   Scattered Clouds
11:35 PM 77.0 °F - 71.6 °F 83% 30.01 in 10.0 mi SW 4.6 mph - N/A   Clear
11:53 PM 78.1 °F - 72.0 °F 81% 29.99 in - SW 4.6 mph - 0.01 in   Unknown
11:55 PM 77.0 °F - 71.6 °F 83% 30.01 in 10.0 mi SW 4.6 mph - N/A   Scattered Clouds